Childress, TX

7:29 PM CDT on September 20, 2017 (GMT -0500)
Childress Municipal

Weather History for KCDS - November, 2012

Change the Weather History Date:

Monday, November 12, 2012

  Actual Average Record
Temperature  
Mean Temperature 41 °F 53 °F  
Max Temperature 54 °F 67 °F 87 °F (1938)
Min Temperature 28 °F 40 °F 17 °F (1907)
Degree Days  
Heating Degree Days 24 12  
Month to date heating degree days 65 120  
Since 1 July heating degree days 244 272  
Cooling Degree Days 0 0  
Month to date cooling degree days 29 7  
Year to date cooling degree days 2795 2207  
Moisture  
Dew Point 20 °F    
Average Humidity 46    
Maximum Humidity 69    
Minimum Humidity 22    
Precipitation  
Precipitation 0.00 in 0.04 in 0.91 in (2010)
Month to date precipitation 0.08 0.56  
Year to date precipitation 16.82 22.32  
Snow  
Snow 0.00 in 0.00 in - ()
Month to date snowfall 0.0 0.2  
Since 1 July snowfall 0.0 0.4  
Since 1 September snowfall 0.0 0.4  
Snow Depth -    
Sea Level Pressure  
Sea Level Pressure 30.45 in    
Wind  
Wind Speed 5 mph (SSW)    
Max Wind Speed 9 mph    
Max Gust Speed 13 mph    
Visibility 10 miles    
Events      
T = Trace of Precipitation, MM = Missing Value Source: NWS Daily Summary

Daily Weather History Graph

Daily Weather History Graph

Search for Another Location

Airport or City:

Trip Planner

Search our weather history database for the weather conditions in past years. The results will help you decide how hot, cold, wet, or windy it might be!

Date:

Astronomy

Nov. 12, 2012 Rise Set
Actual Time 7:12 AM CST 5:38 PM CST
Civil Twilight 6:45 AM CST 6:04 PM CST
Nautical Twilight 6:15 AM CST 6:35 PM CST
Astronomical Twilight 5:45 AM CST 7:04 PM CST
Moon 5:41 AM CST (11/12) 4:43 PM CST (11/12)
Length of Visible Light 11h 19m
Length of Day
10h 26m
Waning Crescent, 2% of the Moon is Illuminated
Nov 12
Waning Crescent
Nov 13
New
Nov 20
First Quarter
Nov 28
Full
Dec 6
Last Quarter

Hourly Weather History & Observations

Time (CST) Temp. Windchill Dew Point Humidity Pressure Visibility Wind Dir Wind Speed Gust Speed Precip Events Conditions
12:53 AM 32.0 °F 28.7 °F 23.0 °F 69% 30.36 in 10.0 mi NNW 3.5 mph - N/A   Clear
1:53 AM 32.0 °F - 23.0 °F 69% 30.37 in 10.0 mi Calm Calm - N/A   Clear
2:53 AM 32.0 °F 28.7 °F 21.9 °F 66% 30.39 in 10.0 mi NW 3.5 mph - N/A   Clear
3:53 AM 33.1 °F - 21.9 °F 64% 30.41 in 10.0 mi Calm Calm - N/A   Clear
4:53 AM 32.0 °F 28.7 °F 21.0 °F 64% 30.43 in 10.0 mi NNW 3.5 mph - N/A   Clear
5:53 AM 30.0 °F - 21.0 °F 69% 30.45 in 10.0 mi Calm Calm - N/A   Clear
6:53 AM 28.9 °F - 19.9 °F 69% 30.46 in 10.0 mi Calm Calm - N/A   Clear
7:53 AM 32.0 °F 28.7 °F 21.9 °F 66% 30.49 in 10.0 mi North 3.5 mph - N/A   Clear
8:53 AM 37.0 °F 34.5 °F 23.0 °F 57% 30.51 in 10.0 mi NNW 3.5 mph - N/A   Clear
9:53 AM 39.9 °F 37.8 °F 23.0 °F 51% 30.52 in 10.0 mi Variable 3.5 mph - N/A   Clear
10:53 AM 45.0 °F 43.5 °F 21.9 °F 40% 30.52 in 10.0 mi Variable 3.5 mph - N/A   Clear
11:53 AM 48.0 °F - 19.0 °F 32% 30.50 in 10.0 mi SSW 3.5 mph - N/A   Clear
12:53 PM 50.0 °F - 18.0 °F 28% 30.48 in 10.0 mi SW 5.8 mph - N/A   Clear
1:53 PM 51.8 °F - 17.6 °F 26% 30.44 in 10.0 mi WSW 3.5 mph - N/A   Clear
2:53 PM 54.0 °F - 18.0 °F 24% 30.43 in 10.0 mi South 8.1 mph - N/A   Clear
3:53 PM 54.0 °F - 16.0 °F 22% 30.43 in 10.0 mi SSW 4.6 mph - N/A   Clear
4:53 PM 53.1 °F - 17.1 °F 24% 30.43 in 10.0 mi SSW 5.8 mph - N/A   Clear
5:53 PM 46.0 °F 43.1 °F 18.0 °F 33% 30.44 in 10.0 mi SSE 5.8 mph - N/A   Clear
6:53 PM 41.0 °F 36.4 °F 19.0 °F 41% 30.46 in 10.0 mi SE 6.9 mph - N/A   Clear
7:53 PM 37.9 °F 32.1 °F 19.0 °F 47% 30.47 in 10.0 mi SSE 8.1 mph - N/A   Clear
8:53 PM 37.9 °F 32.1 °F 19.9 °F 48% 30.48 in 10.0 mi SSE 8.1 mph - N/A   Clear
9:53 PM 36.0 °F 30.3 °F 21.0 °F 55% 30.48 in 10.0 mi SSE 6.9 mph - N/A   Clear
10:53 PM 33.1 °F 26.9 °F 19.9 °F 59% 30.48 in 10.0 mi South 6.9 mph - N/A   Clear
11:53 PM 33.1 °F 25.5 °F 21.9 °F 64% 30.48 in 10.0 mi South 9.2 mph - N/A   Clear